Regional Weather Roundup
Issued by NWS Glasgow, MT

Home | Current Version | Previous Version | Text Only | Print | Product List | Glossary On
Versions: 1 2 3 4 5 6 7 8 9 10 11 12 13 14 15 16 17 18 19 20 21 22 23 24 25 26 27 28 29 30 31 32 33 34 35 36 37 38 39 40 41 42 43 44 45 46 47 48 49 50
000
ASUS45 KGGW 011715
RWRGGW
HOURLY WEATHER ROUNDUP FOR NORTHEAST MONTANA
NATIONAL WEATHER SERVICE GLASGOW MONTANA
1100 AM MDT WED APR 01 2015

NOTE: "FAIR" INDICATES FEW OR NO CLOUDS BELOW 12,000 FEET WITH NO
SIGNIFICANT WEATHER AND/OR OBSTRUCTIONS TO VISISBILITY.

NORTHEAST MONTANA


CITY           SKY/WX    TMP DP  RH WIND       PRES   REMARKS
GLASGOW        PTSUNNY   47  26  44 NW22G31   29.72R
PLENTYWOOD       N/A     44  32  62 NW24G33     N/A
WOLF POINT     MOSUNNY   52  30  43 NW31G39   29.70R
JORDAN           N/A     50  21  32 W26G38    29.76S
WINNETT          N/A     48  14  25 W23G33      N/A
SIDNEY         MOSUNNY   50  30  46 W23G32    29.65R
GLENDIVE         N/A     52  28  40 W32G44    29.69R
MALTA            N/A     44  32  62 W18G26      N/A
SCOBEY           N/A     45  27  49 W25G36    29.66S

FORT PECK REPORTS


CITY           SKY/WX    TMP DP  RH WIND       PRES   REMARKS
FORT PECK        N/A     48  30  49 W28G41      N/A
THE PINES        N/A     48  27  44 W15G28      N/A

SOUTHEAST MONTANA


CITY           SKY/WX    TMP DP  RH WIND       PRES   REMARKS
BILLINGS       PTSUNNY   48  13  24 W25G36    29.87S
MILES CITY     MOSUNNY   58  16  19 NW31G45   29.77S
BAKER          SUNNY     52  21  29 W30G44    29.71R
LIVINGSTON     MOSUNNY   42  18  37 W33G43    29.90F

CENTRAL MONTANA


CITY           SKY/WX    TMP DP  RH WIND       PRES   REMARKS
HAVRE          CLOUDY    41  32  70 NW7       29.82S
LEWISTOWN      MOSUNNY   43  16  33 NW25G38   29.83S
GREAT FALLS      N/A     46  11  24 W25G36    29.84S
CUT BANK       MOSUNNY   42  18  37 W31G41    29.80R
HELENA         MOSUNNY   43  14  31 W25G37    29.93R
BUTTE          CLOUDY    34  11  38 NW15      29.98R
BOZEMAN        MOSUNNY   41  23  48 SW16      29.97S

WESTERN MONTANA


CITY           SKY/WX    TMP DP  RH WIND       PRES   REMARKS
MISSOULA       CLOUDY    40  23  50 W9        30.07S
KALISPELL      NOT AVBL

NORTH DAKOTA


CITY           SKY/WX    TMP DP  RH WIND       PRES   REMARKS
WILLISTON      CLOUDY    52  34  50 W25G33    29.60R
DICKINSON      CLOUDY    53  24  32 W33G41    29.60R
MINOT          CLOUDY    54  35  48 W28G38    29.48R
BISMARCK       MOSUNNY   59  36  42 NW25G45   29.52R

SOUTHERN SASKATCHEWAN


CITY           SKY/WX    TMP DP  RH WIND       PRES   REMARKS
REGINA         PTSUNNY   45  36  70 W25G32    29.55R
MOOSE JAW      PTSUNNY   45  32  61 W24G32    29.58R
ESTEVAN        CLOUDY    46  39  76 NW22G31   29.54R
SWIFT CURRENT  SUNNY     45  19  36 NW38G48   29.59S



USA.gov is the U.S. government's official web portal to all federal, state and local government web resources and services.